Weather History for Muscatine, IA

Change the Weather History Date:

Tuesday, October 9, 2012

  Actual Average Record
Temperature  
Mean Temperature 53 °F -  
Max Temperature 64 °F 65 °F 87 °F (2010)
Min Temperature 42 °F 44 °F 32 °F (1952)
Degree Days  
Heating Degree Days 12    
Growing Degree Days 3 (Base 50)    
Moisture  
Dew Point 35 °F    
Average Humidity 55    
Maximum Humidity 87    
Minimum Humidity 30    
Precipitation  
Precipitation 0.07 in - - ()
Sea Level Pressure  
Sea Level Pressure 29.91 in    
Wind  
Wind Speed 10 mph (SW)    
Max Wind Speed 20 mph    
Max Gust Speed 30 mph    
Visibility 10 miles    
Events Rain    
Averages and records for this station are not official NWS values.
T = Trace of Precipitation, MM = Missing Value Source: NWS Daily Summary

Daily Weather History Graph

Daily Weather History Graph

Search for Another Location

Airport:

Trip Planner

Search our weather history database for the weather conditions in past years. The results will help you decide how hot, cold, wet, or windy it might be!

Date:

Astronomy

Oct. 09, 2012 Rise Set
Actual Time 7:10 AM CDT 6:32 PM CDT
Civil Twilight 6:42 AM CDT 6:59 PM CDT
Nautical Twilight 6:10 AM CDT 7:31 PM CDT
Astronomical Twilight 5:38 AM CDT 8:03 PM CDT
Moon 12:43 AM CDT (10/9) 3:03 PM CDT (10/9)
Length of Visible Light 12h 17m
Length of Day
11h 21m
Last Quarter, 36% of the Moon is Illuminated
Oct 9
Last Quarter
Oct 15
New
Oct 21
First Quarter
Oct 29
Full
Nov 6
Last Quarter

Hourly Weather History & Observations

Time (CDT) Temp. Windchill Dew Point Humidity Pressure Visibility Wind Dir Wind Speed Gust Speed Precip Events Conditions
12:15 AM 50.0 °F - 32.0 °F 50% 29.93 in 10.0 mi South 8.1 mph - N/A   Mostly Cloudy
12:35 AM 50.0 °F - 32.0 °F 50% 29.93 in 10.0 mi South 8.1 mph - N/A   Mostly Cloudy
12:55 AM 51.8 °F - 32.0 °F 47% 29.93 in 10.0 mi SSE 9.2 mph - N/A   Mostly Cloudy
1:15 AM 51.8 °F - 32.0 °F 47% 29.93 in 10.0 mi South 9.2 mph - N/A   Scattered Clouds
1:35 AM 51.8 °F - 32.0 °F 47% 29.93 in 10.0 mi South 6.9 mph - N/A   Scattered Clouds
1:55 AM 51.8 °F - 32.0 °F 47% 29.93 in 10.0 mi SSE 8.1 mph - N/A   Overcast
2:15 AM 53.6 °F - 30.2 °F 41% 29.92 in 10.0 mi South 6.9 mph - N/A   Overcast
3:15 AM 53.6 °F - 30.2 °F 41% 29.91 in 10.0 mi South 11.5 mph - N/A   Overcast
3:35 AM 53.6 °F - 30.2 °F 41% 29.91 in 10.0 mi SSW 15.0 mph 19.6 mph N/A   Overcast
3:55 AM 53.6 °F - 32.0 °F 44% 29.91 in 10.0 mi SSW 16.1 mph 20.7 mph N/A   Overcast
4:15 AM 53.6 °F - 32.0 °F 44% 29.91 in 10.0 mi SSW 11.5 mph 19.6 mph N/A   Overcast
4:35 AM 51.8 °F - 32.0 °F 47% 29.91 in 10.0 mi SSW 11.5 mph 16.1 mph N/A   Mostly Cloudy
4:55 AM 51.8 °F - 33.8 °F 50% 29.90 in 10.0 mi South 12.7 mph 17.3 mph N/A   Mostly Cloudy
5:15 AM 51.8 °F - 33.8 °F 50% 29.90 in 10.0 mi South 13.8 mph 18.4 mph N/A   Mostly Cloudy
5:35 AM 50.0 °F - 33.8 °F 54% 29.90 in 10.0 mi South 8.1 mph - N/A   Clear
5:55 AM 48.2 °F - 33.8 °F 58% 29.90 in 10.0 mi South 4.6 mph - N/A   Clear
6:15 AM 46.4 °F 43.5 °F 33.8 °F 62% 29.90 in 10.0 mi SSE 5.8 mph - N/A   Clear
6:35 AM 46.4 °F 45.2 °F 35.6 °F 66% 29.90 in 10.0 mi SE 3.5 mph - N/A   Clear
6:55 AM 44.6 °F - 33.8 °F 66% 29.89 in 10.0 mi Calm Calm - N/A   Clear
7:15 AM 44.6 °F 42.2 °F 33.8 °F 66% 29.89 in 10.0 mi SSE 4.6 mph - N/A   Clear
7:35 AM 46.4 °F 43.5 °F 35.6 °F 66% 29.89 in 10.0 mi SSE 5.8 mph - N/A   Clear
7:55 AM 48.2 °F - 35.6 °F 62% 29.89 in 10.0 mi South 6.9 mph - N/A   Clear
8:15 AM 51.8 °F - 35.6 °F 54% 29.90 in 10.0 mi South 6.9 mph - N/A   Clear
8:35 AM 51.8 °F - 35.6 °F 54% 29.89 in 10.0 mi SSW 10.4 mph - N/A   Clear
8:55 AM 53.6 °F - 35.6 °F 51% 29.89 in 10.0 mi South 11.5 mph - N/A   Clear
9:15 AM 53.6 °F - 35.6 °F 51% 29.89 in 10.0 mi SSW 11.5 mph - N/A   Clear
9:35 AM 53.6 °F - 35.6 °F 51% 29.89 in 10.0 mi SSW 13.8 mph 19.6 mph N/A   Clear
9:55 AM 55.4 °F - 35.6 °F 47% 29.89 in 10.0 mi SSW 15.0 mph 19.6 mph N/A   Clear
10:15 AM 55.4 °F - 35.6 °F 47% 29.89 in 10.0 mi SW 15.0 mph 23.0 mph N/A   Clear
10:35 AM 57.2 °F - 35.6 °F 44% 29.89 in 10.0 mi SSW 13.8 mph 20.7 mph N/A   Clear
10:55 AM 60.8 °F - 33.8 °F 36% 29.89 in 10.0 mi SW 13.8 mph 19.6 mph N/A   Clear
11:15 AM 60.8 °F - 33.8 °F 36% 29.89 in 10.0 mi SW 16.1 mph 21.9 mph N/A   Clear
11:35 AM 60.8 °F - 33.8 °F 36% 29.88 in 10.0 mi SW 12.7 mph 21.9 mph N/A   Clear
11:55 AM 62.6 °F - 33.8 °F 34% 29.87 in 10.0 mi SW 12.7 mph - N/A   Clear
12:15 PM 62.6 °F - 33.8 °F 34% 29.87 in 10.0 mi SSW 12.7 mph 17.3 mph N/A   Clear
12:35 PM 62.6 °F - 33.8 °F 34% 29.86 in 10.0 mi SW 10.4 mph 19.6 mph N/A   Clear
12:55 PM 62.6 °F - 33.8 °F 34% 29.86 in 10.0 mi WSW 15.0 mph - N/A   Clear
1:15 PM 64.4 °F - 33.8 °F 32% 29.85 in 10.0 mi SW 11.5 mph 18.4 mph N/A   Clear
1:35 PM 64.4 °F - 32.0 °F 30% 29.84 in 10.0 mi SSW 12.7 mph 17.3 mph N/A   Clear
1:55 PM 64.4 °F - 32.0 °F 30% 29.85 in 10.0 mi SW 15.0 mph - N/A   Clear
2:15 PM 64.4 °F - 32.0 °F 30% 29.84 in 10.0 mi WSW 12.7 mph 18.4 mph N/A   Clear
2:35 PM 62.6 °F - 33.8 °F 34% 29.85 in 10.0 mi WSW 15.0 mph - N/A   Clear
2:55 PM 62.6 °F - 33.8 °F 34% 29.85 in 10.0 mi West 17.3 mph 23.0 mph N/A   Clear
3:15 PM 62.6 °F - 32.0 °F 32% 29.85 in 10.0 mi West 16.1 mph 24.2 mph N/A   Clear
3:35 PM 62.6 °F - 32.0 °F 32% 29.85 in 10.0 mi WSW 15.0 mph - N/A   Clear
3:55 PM 64.4 °F - 32.0 °F 30% 29.85 in 10.0 mi WSW 12.7 mph - N/A   Scattered Clouds
4:15 PM 60.8 °F - 41.0 °F 48% 29.87 in 10.0 mi NNW 17.3 mph 27.6 mph N/A   Scattered Clouds
4:35 PM 57.2 °F - 39.2 °F 51% 29.89 in 10.0 mi NNW 17.3 mph 27.6 mph N/A   Scattered Clouds
4:55 PM 55.4 °F - 37.4 °F 51% 29.89 in 10.0 mi NW 18.4 mph 24.2 mph N/A   Mostly Cloudy
5:15 PM 53.6 °F - 37.4 °F 54% 29.91 in 10.0 mi NW 18.4 mph 29.9 mph N/A   Mostly Cloudy
5:35 PM 51.8 °F - 37.4 °F 58% 29.92 in 10.0 mi NW 19.6 mph 28.8 mph N/A   Drizzle
5:55 PM 48.2 °F - 42.8 °F 82% 29.93 in 7.0 mi NW 15.0 mph 25.3 mph 0.02 in Rain Rain
6:15 PM 48.2 °F - 42.8 °F 82% 29.93 in 10.0 mi NNW 10.4 mph - 0.02 in Rain Light Rain
6:35 PM 46.4 °F 41.9 °F 42.8 °F 87% 29.94 in 10.0 mi NW 9.2 mph - 0.03 in Rain Light Rain
6:55 PM 46.4 °F 41.1 °F 42.8 °F 87% 29.94 in 10.0 mi WNW 11.5 mph - 0.03 in Rain Rain
7:15 PM 46.4 °F 41.5 °F 41.0 °F 81% 29.94 in 10.0 mi WNW 10.4 mph - 0.01 in Rain Light Rain
7:35 PM 46.4 °F 42.4 °F 41.0 °F 81% 29.94 in 10.0 mi WNW 8.1 mph - 0.01 in Rain Light Rain
7:55 PM 46.4 °F 42.9 °F 41.0 °F 81% 29.95 in 10.0 mi WNW 6.9 mph - 0.02 in Rain Light Rain
8:15 PM 46.4 °F 43.5 °F 39.2 °F 76% 29.95 in 10.0 mi WNW 5.8 mph - N/A   Overcast
8:35 PM 46.4 °F 41.5 °F 39.2 °F 76% 29.96 in 10.0 mi WNW 10.4 mph - N/A   Overcast
8:55 PM 46.4 °F 40.7 °F 41.0 °F 81% 29.96 in 10.0 mi WNW 12.7 mph - N/A   Overcast
9:15 PM 46.4 °F 41.5 °F 39.2 °F 76% 29.97 in 10.0 mi West 10.4 mph - N/A   Mostly Cloudy
9:35 PM 46.4 °F 41.1 °F 39.2 °F 76% 29.97 in 10.0 mi West 11.5 mph - N/A   Scattered Clouds
9:55 PM 46.4 °F 40.7 °F 39.2 °F 76% 29.99 in 10.0 mi West 12.7 mph 17.3 mph N/A   Clear
10:15 PM 46.4 °F 41.5 °F 39.2 °F 76% 29.99 in 10.0 mi West 10.4 mph - N/A   Clear
10:35 PM 44.6 °F 39.7 °F 39.2 °F 81% 30.00 in 10.0 mi West 9.2 mph - N/A   Clear
10:55 PM 44.6 °F 39.2 °F 37.4 °F 76% 30.00 in 10.0 mi West 10.4 mph - N/A   Clear
11:15 PM 42.8 °F 37.5 °F 37.4 °F 81% 30.00 in 10.0 mi WNW 9.2 mph - N/A   Clear
11:35 PM 42.8 °F 36.2 °F 35.6 °F 76% 30.01 in 10.0 mi WNW 12.7 mph - N/A   Clear
11:55 PM 42.8 °F 36.6 °F 35.6 °F 76% 30.02 in 10.0 mi WNW 11.5 mph - N/A   Clear